Terminal Aerodrome Forecast
Issued by NWS Miami, FL

Home | Current Version | Previous Version | Text Only | Print | Product List | Glossary On
Versions: 1 2 3 4 5 6 7 8 9 10 11 12 13 14 15 16 17 18 19 20 21 22 23 24 25 26 27 28 29 30 31 32 33 34 35 36 37 38 39 40 41 42 43 44 45 46 47 48 49
000
FTUS42 KMFL 060750 AAA
TAFAPF
TAF AMD
KAPF 060750Z 0608/0706 VRB02KT 3SM BR BKN025
      TEMPO 0608/0612 1/2SM FG BKN002
     FM061300 VRB04KT P6SM SCT020
     FM061700 30010KT P6SM SCT035
     FM070100 02008KT P6SM BKN035=

USA.gov is the U.S. government's official web portal to all federal, state and local government web resources and services.